Stations météo

réclame
Mon MeteoGroup
Cazaux, France (7502): Température de l'air & dewpoint: 16.03.2019 07:00:00 - 22.03.2019 07:00:00 (CET)Cazaux, France (7502): Température de l'air 5cm: 16.03.2019 07:00:00 - 22.03.2019 07:00:00 (CET)Cazaux, France (7502): Température de l'air -20cm & Température de l'air -100cm: 16.03.2019 07:00:00 - 22.03.2019 07:00:00 (CET)Cazaux, France (7502): Vitesse du vent & gusts: 16.03.2019 07:00:00 - 22.03.2019 07:00:00 (CET)Cazaux, France (7502): Direction du vent: 16.03.2019 07:00:00 - 22.03.2019 07:00:00 (CET)Cazaux, France (7502): reduced air pressure: 16.03.2019 07:00:00 - 22.03.2019 07:00:00 (CET)Cazaux, France (7502): visibility: 16.03.2019 07:00:00 - 22.03.2019 07:00:00 (CET)Cazaux, France (7502): Quantités de précipitations: 16.03.2019 07:00:00 - 22.03.2019 07:00:00 (CET)
Date & Time tt [°C] td [°C] tt 5cm [°C] tt -20cm [°C] tt -100cm [°C] ff [km/h] ff [knt] fx [km/h] fx [knt] dd ppp [hPa] vv [km] rr [mm]
22.03.2019 07:00:00 0,7 0,3 -0,6 12,0 13,9 3 2 10 6 ENE 1028,6 10 0,0
22.03.2019 06:00:00 2,7 2,3 2,7 12,1 13,9 0 0 7 4 N 1028,0 0,1 0,0
22.03.2019 05:00:00 2,6 2,2 0,1 12,3 13,9 4 2 10 5 E 1028,2 0,1 0,0
22.03.2019 04:00:00 0,6 0,0 -2,1 12,3 13,9 4 2 9 5 SSE 1028,3 0,2 0,0
22.03.2019 03:00:00 -0,3 -1,0 -2,1 12,4 13,9 3 2 5 3 E 1028,3 0,6 0,0
22.03.2019 02:00:00 2,8 2,1 -0,2 12,5 13,9 3 2 4 2 N 1028,3 0,3 0,2
22.03.2019 01:00:00 2,7 1,7 -1,4 12,5 13,9 0 0 4 2 N 1028,5 0,1 0,0
22.03.2019 00:00:00 3,6 2,3 -0,7 12,5 13,8 0 0 5 3 N 1028,7 29 0,0
21.03.2019 23:00:00 4,2 3,2 -0,6 12,6 13,9 0 0 7 4 N 1028,8 8 0,0
21.03.2019 22:00:00 5,3 3,6 1,3 12,5 13,8 0 0 6 3 N 1028,7 28 0,0
21.03.2019 21:00:00 8,7 6,1 2,8 12,5 13,8 4 2 8 4 N 1028,6 35 0,0
21.03.2019 20:00:00 9,9 5,3 4,0 12,4 13,9 2 1 7 4 W 1028,2 31 0,0
21.03.2019 19:00:00 13,3 5,4 11,5 12,3 13,9 4 2 13 7 W 1027,9 53 0,0
21.03.2019 18:00:00 15,2 4,3 17,5 12,1 13,8 10 6 22 12 WNW 1027,7 54 0,0
21.03.2019 17:00:00 15,6 4,0 19,1 12,0 13,9 16 9 27 15 WNW 1027,9 55 0,0
21.03.2019 16:00:00 16,1 4,5 20,4 11,9 13,9 17 9 24 13 W 1028,1 60 0,0
21.03.2019 15:00:00 15,9 4,3 20,2 11,7 13,9 16 9 30 16 WNW 1028,7 60 0,0
21.03.2019 14:00:00 15,5 5,4 19,8 11,6 13,9 17 9 29 15 W 1029,4 60 0,0
21.03.2019 13:00:00 16,4 0,9 21,0 11,6 13,9 8 4 25 13 E 1030,0 60 0,0
21.03.2019 12:00:00 14,2 4,5 20,4 11,6 13,9 9 5 21 11 SW 1030,4 52 0,0
21.03.2019 11:00:00 13,1 2,9 17,7 11,7 13,9 7 4 15 8 NE 1030,9 46 0,0
21.03.2019 10:00:00 11,0 4,4 12,9 11,7 13,9 10 6 19 10 ENE 1031,2 23 0,0
21.03.2019 09:00:00 8,3 4,1 5,7 11,8 13,9 11 6 16 9 NNE 1031,3 18 0,0
21.03.2019 08:00:00 5,6 4,2 2,3 11,9 13,9 10 6 17 9 N 1031,3 16 0,0
21.03.2019 07:00:00 4,2 3,2 0,3 11,9 13,8 13 7 16 8 N 1030,9 15 0,0
21.03.2019 06:00:00 4,8 3,8 1,9 12,1 13,9 9 5 13 7 N 1030,8 15 0,0
21.03.2019 05:00:00 4,6 3,7 2,0 12,1 13,9 11 6 16 9 N 1030,5 16 0,0
21.03.2019 04:00:00 5,0 4,0 1,5 12,2 13,9 11 6 13 7 N 1030,6 18 0,0
21.03.2019 03:00:00 5,6 4,4 3,3 12,2 13,9 10 6 14 8 N 1031,0 19 0,0
21.03.2019 02:00:00 6,6 5,4 3,4 12,3 13,9 10 6 12 7 N 1031,5 24 0,0
21.03.2019 01:00:00 7,5 6,0 4,1 12,3 13,9 8 5 14 7 N 1031,7 30 0,0
21.03.2019 00:00:00 8,7 6,7 7,2 12,3 13,9 11 6 18 10 N 1032,2 39 0,0
20.03.2019 23:00:00 9,1 6,9 7,1 12,3 13,9 13 7 19 10 N 1032,4 44 0,0
20.03.2019 22:00:00 9,3 6,4 7,6 12,2 13,9 12 6 19 11 N 1032,6 44 0,0
20.03.2019 21:00:00 9,7 6,4 7,6 12,2 13,9 14 8 19 10 N 1032,6 41 0,0
20.03.2019 20:00:00 10,1 5,9 8,2 12,1 13,9 13 7 27 15 NNW 1032,2 40 0,0
20.03.2019 19:00:00 11,5 4,9 10,4 12,0 13,9 14 8 29 16 NNW 1032,0 48 0,0
20.03.2019 18:00:00 13,2 3,8 15,0 11,9 13,9 20 11 32 17 NNW 1031,5 49 0,0
20.03.2019 17:00:00 14,4 3,2 18,2 11,8 13,9 20 11 35 19 NNW 1031,4 32 0,0
20.03.2019 16:00:00 15,0 1,1 19,7 11,6 13,9 22 12 35 19 N 1031,6 60 0,0
20.03.2019 15:00:00 15,7 0,3 21,3 11,5 13,9 16 9 40 21 N 1031,9 60 0,0
20.03.2019 14:00:00 15,2 0,2 21,1 11,5 13,9 19 10 35 19 N 1032,6 60 0,0
20.03.2019 13:00:00 14,4 -1,3 19,8 11,4 13,9 17 9 37 20 N 1033,1 60 0,0
20.03.2019 12:00:00 13,5 0,1 18,9 11,5 13,9 21 11 33 18 NNE 1033,7 60 0,0
20.03.2019 11:00:00 12,9 0,9 17,2 11,5 13,9 17 9 28 15 NE 1033,9 60 0,0
20.03.2019 10:00:00 10,6 4,3 12,3 11,6 13,9 3 2 11 6 NNE 1034,1 48 0,0
20.03.2019 09:00:00 6,9 3,9 3,1 11,7 13,9 8 5 14 8 N 1033,7 20 0,0
20.03.2019 08:00:00 3,4 2,7 -0,6 11,8 13,9 7 4 13 7 N 1033,3 20 0,0
20.03.2019 07:00:00 2,8 2,1 -0,7 11,9 13,9 5 3 10 5 N 1033,0 16 0,0
20.03.2019 06:00:00 2,8 1,9 -0,4 12,0 14,0 8 4 10 5 N 1032,5 22 0,2
20.03.2019 05:00:00 3,9 3,0 0,3 12,1 13,9 8 4 11 6 N 1032,1 26 0,0
20.03.2019 04:00:00 4,5 3,6 1,8 12,1 13,9 10 6 14 8 N 1032,3 31 0,0
20.03.2019 03:00:00 4,7 3,7 2,2 12,2 13,9 10 5 13 7 N 1032,5 32 0,0
20.03.2019 02:00:00 5,2 4,2 2,8 12,3 13,9 10 5 13 7 N 1032,6 29 0,0
20.03.2019 01:00:00 5,8 4,4 3,8 12,3 13,9 10 6 14 8 N 1032,5 36 0,0
20.03.2019 00:00:00 6,2 4,7 4,1 12,3 13,9 11 6 16 9 N 1032,9 43 0,0
19.03.2019 23:00:00 7,4 5,4 2,8 12,4 13,9 12 6 16 9 N 1032,4 49 0,0
19.03.2019 22:00:00 6,4 4,7 3,1 12,4 13,9 9 5 12 6 N 1031,9 60 0,0
19.03.2019 21:00:00 7,1 4,9 4,6 12,3 13,9 8 5 17 9 NNW 1031,4 58 0,0
19.03.2019 20:00:00 8,3 5,4 6,4 12,3 14,0 12 6 18 10 NNW 1030,9 59 0,0
19.03.2019 19:00:00 10,2 5,4 9,4 12,2 13,9 11 6 23 12 NW 1030,3 60 0,0
19.03.2019 18:00:00 11,7 5,6 12,0 12,1 14,0 15 8 25 13 NNW 1029,6 60 0,0
19.03.2019 17:00:00 11,8 5,4 13,7 12,0 13,9 18 10 31 17 NNW 1029,4 60 0,0
19.03.2019 16:00:00 12,8 5,2 13,4 11,9 13,9 21 11 31 17 NNW 1029,3 57 0,0
19.03.2019 15:00:00 12,3 4,8 11,4 11,8 13,9 16 9 29 16 NNW 1029,3 59 0,0
19.03.2019 14:00:00 12,2 4,4 13,0 11,8 13,9 13 7 26 14 NNW 1029,5 60 0,0
19.03.2019 13:00:00 11,4 4,8 11,6 11,8 13,9 11 6 22 12 N 1030,0 55 0,0
19.03.2019 12:00:00 10,3 3,8 11,9 11,8 13,9 11 6 19 10 NNE 1030,0 60 0,0
19.03.2019 11:00:00 10,5 4,8 13,2 11,9 13,9 10 5 16 9 NNE 1029,7 60 0,0
19.03.2019 10:00:00 9,8 6,0 11,9 12,0 14,0 10 5 17 9 NNE 1029,5 17 0,0
19.03.2019 09:00:00 7,9 6,8 6,6 12,0 13,9 9 5 13 7 N 1028,9 50 0,0
19.03.2019 08:00:00 5,6 5,0 0,7 12,1 13,9 6 4 9 5 N 1028,3 18 0,0
19.03.2019 07:00:00 4,6 3,9 1,3 12,2 14,0 6 3 10 5 N 1027,8 15 0,0
19.03.2019 06:00:00 5,6 5,0 1,9 12,2 13,9 8 4 11 6 NNE 1027,6 30 0,0
19.03.2019 05:00:00 5,8 5,1 2,5 12,3 14,0 7 4 9 5 N 1027,2 52 0,0
19.03.2019 04:00:00 6,7 5,8 3,4 12,4 14,0 5 3 9 5 NNW 1026,9 53 0,0
19.03.2019 03:00:00 7,7 6,8 7,2 12,4 13,9 6 3 22 12 NNW 1027,0 60 1,7
19.03.2019 02:00:00 7,8 6,9 7,1 12,4 13,9 2 1 7 4 N 1027,4 8 0,8
19.03.2019 01:00:00 7,6 6,5 7,2 12,4 13,9 3 2 18 10 NW 1027,6 30 1,8
19.03.2019 00:00:00 7,8 6,6 7,4 12,4 13,9 5 3 12 7 NW 1028,0 9 1,6
18.03.2019 23:00:00 8,3 7,1 7,6 12,5 13,9 4 2 8 4 WNW 1027,9 15 0,4
18.03.2019 22:00:00 8,3 6,8 7,7 12,5 14,0 6 3 26 14 NNW 1028,1 16 0,4
18.03.2019 21:00:00 9,5 6,4 8,3 12,4 13,9 7 4 22 12 NNW 1028,0 8 0,0
18.03.2019 20:00:00 10,0 5,2 9,1 12,3 13,9 10 5 26 14 WNW 1027,8 37 0,0
18.03.2019 19:00:00 10,8 4,7 10,3 12,3 13,9 14 7 26 14 WNW 1027,6 48 0,0
18.03.2019 18:00:00 11,4 3,7 11,5 12,2 14,0 19 10 33 18 WNW 1027,3 49 0,0
18.03.2019 17:00:00 12,0 4,2 13,4 12,1 13,9 16 9 38 20 WNW 1027,4 39 0,0
18.03.2019 16:00:00 12,2 3,9 14,9 12,0 13,9 19 10 34 19 WNW 1027,7 46 0,0
18.03.2019 15:00:00 13,4 4,0 15,3 11,9 13,9 19 10 34 19 WNW 1027,7 55 0,0
18.03.2019 14:00:00 13,2 1,8 13,8 11,9 13,9 17 9 30 16 NW 1028,0 49 0,0
18.03.2019 13:00:00 12,8 2,6 13,3 11,9 14,0 14 7 27 15 NW 1028,4 60 0,0
18.03.2019 12:00:00 12,1 5,3 12,5 11,9 13,9 16 9 25 14 WNW 1028,5 47 0,0
18.03.2019 11:00:00 11,7 4,2 10,6 12,0 13,9 13 7 22 12 NNW 1028,5 49 0,0
18.03.2019 10:00:00 11,4 5,0 13,6 12,1 13,9 5 3 12 7 NNW 1028,2 41 0,0
18.03.2019 09:00:00 8,8 8,2 3,8 12,3 13,9 0 0 4 2 N 1027,8 36 0,0
18.03.2019 08:00:00 2,6 2,0 -0,9 12,4 13,9 0 0 4 2 N 1027,1 20 0,2
18.03.2019 07:00:00 1,5 0,8 -2,0 12,5 13,9 0 0 2 1 N 1026,9 0,5 0,0
18.03.2019 06:00:00 2,5 1,6 -0,9 12,6 13,9 0 0 3 1 N 1026,2 0,7 0,0
18.03.2019 05:00:00 3,0 2,0 -0,6 12,7 13,9 0 0 6 4 N 1025,8 15 0,0
18.03.2019 04:00:00 3,4 1,6 0,2 12,7 13,9 0 0 9 5 N 1025,6 19 0,0
18.03.2019 03:00:00 5,4 3,9 0,4 12,8 13,9 9 5 12 6 NNW 1025,6 38 0,0
18.03.2019 02:00:00 6,4 4,7 2,6 12,8 13,9 2 1 16 9 NW 1025,5 32 0,0
18.03.2019 01:00:00 6,9 5,0 2,7 12,9 13,9 6 3 25 14 W 1025,5 42 0,0
18.03.2019 00:00:00 7,1 5,4 4,2 12,9 13,9 6 3 24 13 N 1025,8 36 0,0
17.03.2019 23:00:00 6,8 4,8 4,4 13,0 13,9 5 3 45 25 SW 1025,6 43 0,2
17.03.2019 22:00:00 7,7 5,2 6,5 13,0 13,9 11 6 50 27 WNW 1025,2 13 1,0
17.03.2019 21:00:00 9,9 3,2 7,2 13,0 13,9 18 10 31 17 WNW 1024,7 46 0,0
17.03.2019 20:00:00 9,4 2,9 6,6 13,0 13,9 11 6 24 13 W 1024,2 47 0,0
17.03.2019 19:00:00 9,6 3,3 7,6 13,0 13,8 11 6 34 19 WNW 1023,8 54 0,2
17.03.2019 18:00:00 10,9 2,2 10,6 12,9 13,9 18 10 42 23 WNW 1023,2 47 0,0
17.03.2019 17:00:00 12,1 2,0 13,7 12,9 13,8 24 13 42 23 NW 1022,6 49 0,0
17.03.2019 16:00:00 12,3 3,8 13,5 12,8 13,8 27 15 47 26 WNW 1022,5 20 0,0
17.03.2019 15:00:00 12,6 2,7 14,5 12,8 13,8 28 15 49 26 NW 1022,0 48 0,0
17.03.2019 14:00:00 12,9 2,7 16,1 12,8 13,8 30 16 50 27 WNW 1021,7 57 0,0
17.03.2019 13:00:00 13,4 4,5 12,4 12,8 13,8 21 11 44 24 WNW 1021,2 19 0,0
17.03.2019 12:00:00 11,6 5,5 10,4 12,8 13,8 27 15 40 22 NW 1020,5 44 0,0
17.03.2019 11:00:00 10,4 7,5 10,0 12,9 13,8 19 11 33 18 NW 1019,7 15 0,0
17.03.2019 10:00:00 9,6 8,2 9,1 12,9 13,8 17 9 45 24 NNW 1018,8 20 0,4
17.03.2019 09:00:00 9,6 8,2 9,1 12,9 13,8 26 14 46 25 NW 1017,7 8 0,6
17.03.2019 08:00:00 11,3 9,9 10,4 13,0 13,8 28 15 49 26 W 1015,9 7 0,4
17.03.2019 07:00:00 11,8 9,4 10,1 13,0 13,8 20 11 40 22 WSW 1015,5 14 0,0
17.03.2019 06:00:00 11,6 8,4 10,2 13,1 13,8 21 11 42 23 WSW 1015,5 12 0,0
17.03.2019 05:00:00 11,9 7,6 10,1 13,2 13,8 20 11 39 21 WSW 1015,1 31 0,0
17.03.2019 04:00:00 12,0 7,9 11,3 13,2 13,8 16 8 34 19 W 1015,0 27 0,0
17.03.2019 03:00:00 11,8 8,1 10,8 13,2 13,7 19 10 38 21 W 1015,2 24 0,0
17.03.2019 02:00:00 11,5 8,0 10,5 13,3 13,7 9 5 34 18 W 1015,3 24 0,0
17.03.2019 01:00:00 11,5 8,5 9,8 13,3 13,7 15 8 34 18 W 1015,5 20 0,0
17.03.2019 00:00:00 11,0 8,9 8,6 13,4 13,7 16 8 32 17 WNW 1015,5 22 0,0
16.03.2019 23:00:00 10,6 9,0 4,0 13,4 13,7 13 7 21 11 NW 1015,1 8 0,0
16.03.2019 22:00:00 8,6 7,1 3,0 13,4 13,8 5 3 8 4 NW 1014,6 12 0,0
16.03.2019 21:00:00 10,6 7,1 4,5 13,3 13,7 3 1 8 4 N 1014,1 37 0,0
16.03.2019 20:00:00 14,5 8,4 7,8 13,2 13,7 4 2 10 6 N 1014,2 38 0,0
16.03.2019 19:00:00 18,8 6,9 15,1 13,0 13,7 4 2 6 3 WSW 1014,5 60 0,0
16.03.2019 18:00:00 20,2 6,9 22,5 12,9 13,7 4 2 10 6 SE 1014,6 60 0,0
16.03.2019 17:00:00 20,5 6,4 22,8 12,7 13,7 5 3 11 6 SSE 1015,2 60 0,0
16.03.2019 16:00:00 20,7 4,3 25,2 12,5 13,7 5 3 14 8 S 1015,8 49 0,0
16.03.2019 15:00:00 19,8 6,2 24,8 12,4 13,7 10 5 16 9 S 1016,9 57 0,0
16.03.2019 14:00:00 18,4 5,9 21,4 12,3 13,7 8 4 23 12 SE 1018,1 60 0,0
16.03.2019 13:00:00 16,0 6,4 19,6 12,3 13,7 13 7 24 13 SE 1019,6 60 0,0
16.03.2019 12:00:00 14,5 6,6 18,2 12,3 13,7 16 8 29 16 SSE 1020,6 60 0,0
16.03.2019 11:00:00 13,2 6,8 14,2 12,3 13,7 16 9 25 13 SE 1021,4 18 0,0
16.03.2019 10:00:00 11,9 6,2 13,3 12,3 13,7 12 7 21 11 S 1022,1 48 0,0
16.03.2019 09:00:00 11,9 5,7 10,0 12,4 13,7 9 5 18 10 SSE 1022,5 54 0,0
16.03.2019 08:00:00 10,1 6,4 9,5 12,4 13,7 11 6 18 10 SSE 1023,0 58 0,0
16.03.2019 07:00:00 10,4 6,7 9,7 12,4 13,7 8 4 15 8 S 1023,4 58 0,0

tt = Température de l'air
td = dewpoint
tt 5cm = Température de l'air 5cm
tt -20cm = Température de l'air -20cm
tt -100cm = Température de l'air -100cm
ff = Vitesse du vent
fx = gusts
dd = Direction du vent
ppp = reduced air pressure
vv = visibility
rr = Quantités de précipitations

stations d'obs. à proximité